Find Starlink 36956

NORAD ID: 68009 Int'l Des: 2026-039 Owner: SPXS Country: US Constellation: starlink operational
LEOCIRCULAR

リアルタイム位置

3D地球を読み込み中...

Starlink 36956について

説明を読み込み中...

次回通過

Passes for default location (London). Set your location on the main map for personalized predictions.

高度履歴

Loading altitude history...

軌道要素

1 68009U 26039Z 26105.56606388 .00008318 00000-0 31136-3 0 9996
2 68009 43.0016 200.6224 0001199 279.6068 80.4648 15.27588000 7343
Epoch: Apr 15, 2026 • Age: 30 hours

現在のステータス

高度 486.9 km
速度 7.63 km/s
衛星直下点 43.16°N, 142.02°E
打ち上げ日 Feb 27, 2026
運用期間 0.1 years
タイプ internet

技術仕様

分類 Payload
質量 575.00 kg
乾燥質量 530.00 kg
総質量 575.00 kg
長さ 0.30 m
直径 4.10 m
スパン 29.00 m
形状 Box + pan
製造者 SPXS
バスタイプ Starlink V2MO
フェーズステータス In Orbit
所有者/国 SPXS/US

Most Searched